Sparta, TN

1:13 AM CDT on April 24, 2017 (GMT -0500)
Upper Cumberland Regional

Weather History for KSRB - February, 2014

Change the Weather History Date:

Wednesday, February 26, 2014

  Actual Average (KCSV) Record (KCSV)
Temperature  
Mean Temperature 22 °F -  
Max Temperature 33 °F 50 °F 76 °F (1977)
Min Temperature 12 °F 29 °F 5 °F (1967)
Degree Days  
Heating Degree Days 42    
Moisture  
Dew Point 10 °F    
Average Humidity 54    
Maximum Humidity 85    
Minimum Humidity 32    
Precipitation  
Precipitation 0.00 in - - ()
Sea Level Pressure  
Sea Level Pressure 30.02 in    
Wind  
Wind Speed 7 mph (North)    
Max Wind Speed 12 mph    
Max Gust Speed -    
Visibility 10 miles    
Events      
Averages and records for this station are not official NWS values.
T = Trace of Precipitation, MM = Missing Value Source: NWS Daily Summary

Daily Weather History Graph

Daily Weather History Graph

Search for Another Location

Airport or City:

Trip Planner

Search our weather history database for the weather conditions in past years. The results will help you decide how hot, cold, wet, or windy it might be!

Date:

Astronomy

Feb. 26, 2014 Rise Set
Actual Time 6:16 AM CST 5:34 PM CST
Civil Twilight 5:50 AM CST 6:00 PM CST
Nautical Twilight 5:20 AM CST 6:29 PM CST
Astronomical Twilight 4:50 AM CST 6:59 PM CST
Moon 3:57 AM CST (2/26) 2:51 PM CST (2/26)
Length of Visible Light 12h 09m
Length of Day
11h 18m
Waning Crescent, 10% of the Moon is Illuminated
Feb 26
Waning Crescent
Mar 1
New
Mar 8
First Quarter
Mar 16
Full
Mar 23
Last Quarter

Hourly Weather History & Observations

Time (CST) Temp. Windchill Dew Point Humidity Pressure Visibility Wind Dir Wind Speed Gust Speed Precip Events Conditions
12:55 AM 28.4 °F 20.4 °F 19.4 °F 69% 30.03 in 10.0 mi North 8.1 mph - N/A   Overcast
1:15 AM 28.4 °F 20.4 °F 19.4 °F 69% 30.03 in 10.0 mi North 8.1 mph - N/A   Mostly Cloudy
1:35 AM 28.4 °F 20.4 °F 17.6 °F 64% 30.03 in 10.0 mi North 8.1 mph - N/A   Mostly Cloudy
1:55 AM 26.6 °F 16.2 °F 17.6 °F 69% 30.03 in 10.0 mi North 11.5 mph - N/A   Overcast
2:15 AM 26.6 °F 19.1 °F 17.6 °F 69% 30.04 in 10.0 mi Variable 6.9 mph - N/A   Scattered Clouds
2:35 AM 26.6 °F 20.0 °F 17.6 °F 69% 30.06 in 10.0 mi North 5.8 mph - N/A   Scattered Clouds
2:55 AM 26.6 °F 18.2 °F 15.8 °F 64% 30.07 in 10.0 mi North 8.1 mph - N/A   Overcast
3:15 AM 26.6 °F 17.5 °F 15.8 °F 64% 30.06 in 10.0 mi NNE 9.2 mph - N/A   Overcast
3:35 AM 26.6 °F 16.2 °F 15.8 °F 64% 30.08 in 10.0 mi North 11.5 mph - N/A   Overcast
3:55 AM 24.8 °F 16.1 °F 15.8 °F 69% 30.09 in 10.0 mi North 8.1 mph - N/A   Mostly Cloudy
4:15 AM 24.8 °F 14.6 °F 15.8 °F 69% 30.09 in 10.0 mi North 10.4 mph - N/A   Mostly Cloudy
4:35 AM 24.8 °F 14.0 °F 15.8 °F 69% 30.09 in 10.0 mi North 11.5 mph - N/A   Overcast
4:55 AM 24.8 °F 16.1 °F 15.8 °F 69% 30.10 in 10.0 mi North 8.1 mph - N/A   Overcast
5:15 AM 24.8 °F 16.1 °F 15.8 °F 69% 30.09 in 10.0 mi North 8.1 mph - N/A   Overcast
5:35 AM 24.8 °F 14.6 °F 15.8 °F 69% 30.10 in 10.0 mi North 10.4 mph - N/A   Overcast
5:55 AM 23.0 °F 13.9 °F 15.8 °F 74% 30.10 in 10.0 mi North 8.1 mph - N/A   Mostly Cloudy
6:15 AM 23.0 °F 14.7 °F 14.0 °F 68% 30.09 in 10.0 mi North 6.9 mph - N/A   Scattered Clouds
6:35 AM 23.0 °F 17.0 °F 15.8 °F 74% 30.10 in 10.0 mi NNW 4.6 mph - N/A   Overcast
6:55 AM 24.8 °F 17.9 °F 14.0 °F 64% 30.10 in 10.0 mi North 5.8 mph - N/A   Overcast
7:15 AM 24.8 °F 16.9 °F 15.8 °F 69% 30.11 in 10.0 mi Variable 6.9 mph - N/A   Overcast
7:35 AM 24.8 °F 15.3 °F 12.2 °F 59% 30.11 in 10.0 mi North 9.2 mph - N/A   Overcast
7:55 AM 24.8 °F 19.1 °F 12.2 °F 59% 30.10 in 10.0 mi Variable 4.6 mph - N/A   Overcast
8:15 AM 24.8 °F 16.9 °F 12.2 °F 59% 30.10 in 10.0 mi North 6.9 mph - N/A   Overcast
8:35 AM 24.8 °F 15.3 °F 12.2 °F 59% 30.10 in 10.0 mi NNE 9.2 mph - N/A   Mostly Cloudy
8:55 AM 26.6 °F 20.0 °F 10.4 °F 51% 30.09 in 10.0 mi North 5.8 mph - N/A   Partly Cloudy
9:15 AM 26.6 °F 19.1 °F 10.4 °F 51% 30.08 in 10.0 mi Variable 6.9 mph - N/A   Clear
9:35 AM 28.4 °F 19.1 °F 10.4 °F 47% 30.09 in 10.0 mi North 10.4 mph - N/A   Clear
9:55 AM 26.6 °F 16.2 °F 8.6 °F 47% 30.07 in 10.0 mi NNW 11.5 mph - N/A   Clear
10:15 AM 28.4 °F 19.1 °F 10.4 °F 47% 30.07 in 10.0 mi NNW 10.4 mph - N/A   Clear
10:35 AM 28.4 °F 20.4 °F 8.6 °F 43% 30.06 in 10.0 mi NE 8.1 mph - N/A   Clear
10:55 AM 28.4 °F 20.4 °F 8.6 °F 43% 30.05 in 10.0 mi NNE 8.1 mph - N/A   Clear
11:15 AM 30.2 °F 21.9 °F 8.6 °F 40% 30.04 in 10.0 mi NNW 9.2 mph - N/A   Clear
11:35 AM 30.2 °F 21.3 °F 8.6 °F 40% 30.03 in 10.0 mi NW 10.4 mph - N/A   Clear
11:55 AM 30.2 °F 21.9 °F 8.6 °F 40% 30.02 in 10.0 mi North 9.2 mph - N/A   Clear
12:15 PM 32.0 °F 27.5 °F 8.6 °F 38% 30.00 in 10.0 mi Variable 4.6 mph - N/A   Clear
12:35 PM 32.0 °F 25.6 °F 8.6 °F 38% 29.99 in 10.0 mi Variable 6.9 mph - N/A   Clear
12:55 PM 32.0 °F 24.8 °F 8.6 °F 38% 29.98 in 10.0 mi North 8.1 mph - N/A   Clear
1:15 PM 32.0 °F 25.6 °F 6.8 °F 35% 29.97 in 10.0 mi NNE 6.9 mph - N/A   Clear
1:35 PM 33.8 °F 26.4 °F 6.8 °F 32% 29.97 in 10.0 mi North 9.2 mph - N/A   Clear
1:55 PM 32.0 °F 23.6 °F 6.8 °F 35% 29.97 in 10.0 mi NW 10.4 mph - N/A   Unknown
2:15 PM 32.0 °F 25.6 °F 8.6 °F 38% 29.96 in 10.0 mi North 6.9 mph - N/A   Clear
2:35 PM 32.0 °F 24.8 °F 6.8 °F 35% 29.97 in 10.0 mi North 8.1 mph - N/A   Clear
2:55 PM 32.0 °F 27.5 °F 6.8 °F 35% 29.96 in 10.0 mi North 4.6 mph - N/A   Clear
3:15 PM 30.2 °F 24.3 °F 6.8 °F 37% 29.96 in 10.0 mi NNE 5.8 mph - N/A   Clear
3:35 PM 30.2 °F 26.7 °F 6.8 °F 37% 29.96 in 10.0 mi NNE 3.5 mph - N/A   Clear
3:55 PM 30.2 °F 25.4 °F 6.8 °F 37% 29.96 in 10.0 mi Variable 4.6 mph - N/A   Clear
4:15 PM 28.4 °F 23.3 °F 6.8 °F 40% 29.96 in 10.0 mi NNW 4.6 mph - N/A   Clear
4:35 PM 28.4 °F 21.2 °F 3.2 °F 34% 29.96 in 10.0 mi NW 6.9 mph - N/A   Clear
4:55 PM 26.6 °F - 3.2 °F 37% 29.96 in 10.0 mi Calm Calm - N/A   Clear
5:15 PM 26.6 °F 21.2 °F 3.2 °F 37% 29.96 in 10.0 mi NNW 4.6 mph - N/A   Clear
5:35 PM 24.8 °F 20.5 °F 3.2 °F 40% 29.97 in 10.0 mi NNW 3.5 mph - N/A   Clear
5:55 PM 24.8 °F - 3.2 °F 40% 29.97 in 10.0 mi Calm Calm - N/A   Clear
6:15 PM 24.8 °F - 3.2 °F 40% 29.96 in 10.0 mi Calm Calm - N/A   Clear
6:35 PM 23.0 °F - 3.2 °F 43% 29.97 in 10.0 mi Calm Calm - N/A   Clear
6:55 PM 21.2 °F - 1.4 °F 42% 29.97 in 10.0 mi Calm Calm - N/A   Clear
7:15 PM 21.2 °F - 3.2 °F 46% 29.97 in 10.0 mi Calm Calm - N/A   Clear
7:35 PM 21.2 °F 13.6 °F 5.0 °F 50% 29.98 in 10.0 mi NW 5.8 mph - N/A   Clear
7:55 PM 21.2 °F 14.9 °F 5.0 °F 50% 29.99 in 10.0 mi NW 4.6 mph - N/A   Clear
8:15 PM 21.2 °F - 6.8 °F 54% 29.98 in 10.0 mi Calm Calm - N/A   Clear
8:35 PM 19.4 °F 14.3 °F 3.2 °F 49% 29.99 in 10.0 mi NW 3.5 mph - N/A   Clear
8:55 PM 19.4 °F - 3.2 °F 49% 29.98 in 10.0 mi Calm Calm - N/A   Clear
9:15 PM 19.4 °F - 5.0 °F 54% 29.98 in 10.0 mi Calm Calm - N/A   Clear
9:35 PM 17.6 °F - 8.6 °F 68% 29.99 in 10.0 mi Calm Calm - N/A   Clear
9:55 PM 17.6 °F - 6.8 °F 63% 29.98 in 10.0 mi Calm Calm - N/A   Clear
10:15 PM 15.8 °F - 6.8 °F 68% 29.98 in 10.0 mi Calm Calm - N/A   Clear
10:35 PM 14.0 °F - 8.6 °F 79% 29.98 in 10.0 mi Calm Calm - N/A   Clear
10:55 PM 12.2 °F - 8.6 °F 85% 29.98 in 10.0 mi Calm Calm - N/A   Clear
11:15 PM 12.2 °F - 6.8 °F 79% 29.98 in 10.0 mi Calm Calm - N/A   Clear
11:35 PM 12.2 °F - 6.8 °F 79% 29.98 in 10.0 mi Calm Calm - N/A   Clear
11:55 PM 12.2 °F - 6.8 °F 79% 29.98 in 10.0 mi Calm Calm - N/A   Clear